Location: Ravensburg
(47.7866°N, 9.6124°E)
Time: 09:54:29
(UTC+02:00)

YUBILEINY - Pass Details

Date: 18 March 2026
Orbit: 1477 x 1509 km, 82.5° (Epoch: 17 April)

Event Time Altitude Azimuth Distance (km) Brightness Sun altitude
Rises 03:22:31 0° 349° (N) 4,621 ? -30.2°
Reaches altitude 10° 03:25:24 10° 350° (N) 3,634 ? -29.8°
Maximum altitude 03:34:10 90° 268° (W) 1,485 ? -28.6°
Enters shadow 03:42:05 13° 173° (S) 3,343 ? -27.5°
